Location: Fargo
(46.8667°N, 96.7833°W)
Time: 05:54:48
(UTC-05:00)

N. Korean satellite - Visible Passes

Search period start: 15 October 2019 00:00
Search period end: 25 October 2019 00:00
Orbit: 455 x 508 km, 97.2° (Epoch: 14 October)

Date Brightness Start Highest point End Pass type
(mag) Time Alt. Az. Time Alt. Az. Time Alt. Az.
15 Oct 9.6 06:39:48 10° NE 06:42:35 21° E 06:45:24 10° SE visible
16 Oct 10.4 06:15:57 10° ENE 06:17:05 11° E 06:18:15 10° ESE visible
17 Oct 10.1 19:35:15 10° SW 19:37:12 14° W 19:39:10 10° NW visible
18 Oct 8.6 06:56:54 10° NNE 07:00:12 34° E 07:03:32 10° SSE visible
18 Oct 9.0 19:08:44 10° SSW 19:11:43 28° W 19:14:44 10° NW visible
19 Oct 9.9 06:32:14 10° NE 06:34:46 18° E 06:37:18 10° SE visible
21 Oct 7.5 07:14:10 10° NNE 07:17:45 56° E 07:21:21 10° S visible
21 Oct 9.9 19:26:55 10° SW 19:29:18 18° W 19:31:42 10° NW visible
22 Oct 9.0 06:49:11 10° NE 06:52:21 28° E 06:55:34 10° SSE visible
22 Oct 8.5 19:00:41 10° SSW 19:03:49 34° W 19:07:02 10° NNW visible
23 Oct 10.1 06:24:42 10° NE 06:26:53 15° E 06:29:04 10° SE visible
24 Oct 10.4 19:45:49 10° WSW 19:46:54 11° W 19:48:00 10° WNW visible
